Time,TemperatureF,DewpointF,PressureIn,WindDirection,WindDirectionDegrees,WindSpeedMPH,WindSpeedGustMPH,Humidity,HourlyPrecipIn,Conditions,Clouds,dailyrainin,SoftwareType,DateUTC
2013-03-14 06:59:00,36.1,23.2,29.76,SE,135,5.1,5.1,59,0.00,,,0.00,WUHU216HW,2013-03-14 11:59:00,
2013-03-14 07:04:00,36.1,23.2,29.76,South,180,4.0,5.1,59,0.00,,,0.00,WUHU216HW,2013-03-14 12:04:00,
2013-03-14 07:09:00,35.7,22.9,29.76,SSE,158,4.4,4.4,59,0.00,,,0.00,WUHU216HW,2013-03-14 12:09:00,
2013-03-14 07:14:00,35.7,23.3,29.77,South,180,2.2,4.4,60,0.00,,,0.00,WUHU216HW,2013-03-14 12:14:00,
2013-03-14 07:19:00,35.7,23.3,29.77,SSE,158,5.3,5.3,60,0.00,,,0.00,WUHU216HW,2013-03-14 12:19:00,
2013-03-14 07:24:00,35.4,23.0,29.77,SSE,158,4.4,5.3,60,0.00,,,0.00,WUHU216HW,2013-03-14 12:24:00,
2013-03-14 07:29:00,35.4,23.0,29.77,South,180,2.0,6.0,60,0.00,,,0.00,WUHU216HW,2013-03-14 12:29:00,
2013-03-14 07:34:00,35.4,23.0,29.76,SSE,158,2.2,6.0,60,0.00,,,0.00,WUHU216HW,2013-03-14 12:34:00,
2013-03-14 07:39:00,35.4,23.3,29.76,SE,135,1.1,8.0,61,0.00,,,0.00,WUHU216HW,2013-03-14 12:39:00,
2013-03-14 07:44:00,35.4,23.5,29.76,SSE,158,2.0,8.0,61,0.00,,,0.00,WUHU216HW,2013-03-14 12:44:00,
2013-03-14 07:49:00,35.4,23.3,29.76,South,180,2.0,5.8,61,0.00,,,0.00,WUHU216HW,2013-03-14 12:49:00,
2013-03-14 07:54:00,35.7,23.7,29.76,SSE,158,7.3,7.3,61,0.00,,,0.00,WUHU216HW,2013-03-14 12:54:00,
2013-03-14 07:59:00,35.7,23.7,29.76,SSE,158,4.4,7.3,61,0.00,,,0.00,WUHU216HW,2013-03-14 12:59:00,
2013-03-14 08:04:00,35.7,23.7,29.76,SSE,158,6.4,7.1,61,0.00,,,0.00,WUHU216HW,2013-03-14 13:04:00,
2013-03-14 08:09:00,35.9,23.8,29.76,South,180,0.0,7.1,61,0.00,,,0.00,WUHU216HW,2013-03-14 13:09:00,
2013-03-14 08:14:00,35.9,23.8,29.76,South,180,7.8,7.8,61,0.00,,,0.00,WUHU216HW,2013-03-14 13:14:00,
2013-03-14 08:19:00,36.1,24.0,29.76,SSE,158,5.1,7.8,61,0.00,,,0.00,WUHU216HW,2013-03-14 13:19:00,
2013-03-14 08:24:00,36.1,24.0,29.76,SSE,158,8.5,8.5,61,0.00,,,0.00,WUHU216HW,2013-03-14 13:24:00,
2013-03-14 08:29:00,36.1,24.0,29.76,South,180,0.0,8.5,61,0.00,,,0.00,WUHU216HW,2013-03-14 13:29:00,
2013-03-14 08:34:00,36.3,24.1,29.75,SE,135,4.2,8.5,61,0.00,,,0.00,WUHU216HW,2013-03-14 13:34:00,
2013-03-14 08:39:00,36.3,24.1,29.75,South,180,6.4,6.9,61,0.00,,,0.00,WUHU216HW,2013-03-14 13:39:00,
2013-03-14 08:44:00,36.5,24.3,29.75,SSE,158,6.4,6.9,61,0.00,,,0.00,WUHU216HW,2013-03-14 13:44:00,
2013-03-14 08:49:00,36.6,24.8,29.75,SSE,158,2.4,7.8,62,0.00,,,0.00,WUHU216HW,2013-03-14 13:49:00,
2013-03-14 08:54:00,37.0,25.2,29.75,SSE,158,4.0,7.8,62,0.00,,,0.00,WUHU216HW,2013-03-14 13:54:00,
2013-03-14 08:59:00,37.2,25.3,29.75,South,180,6.9,6.9,62,0.00,,,0.00,WUHU216HW,2013-03-14 13:59:00,
2013-03-14 09:04:00,37.5,25.7,29.74,SSE,158,4.6,6.9,62,0.00,,,0.00,WUHU216HW,2013-03-14 14:04:00,
2013-03-14 09:09:00,37.9,26.0,29.74,SSE,158,4.6,6.4,62,0.00,,,0.00,WUHU216HW,2013-03-14 14:09:00,
2013-03-14 09:14:00,38.1,26.3,29.73,SSE,158,7.3,7.8,62,0.00,,,0.00,WUHU216HW,2013-03-14 14:14:00,
2013-03-14 09:19:00,38.8,26.8,29.73,SE,135,5.1,7.8,62,0.00,,,0.00,WUHU216HW,2013-03-14 14:19:00,
2013-03-14 09:24:00,39.0,26.6,29.73,South,180,2.2,7.8,61,0.00,,,0.00,WUHU216HW,2013-03-14 14:24:00,
2013-03-14 09:29:00,39.3,26.9,29.73,SSE,158,7.8,7.8,61,0.00,,,0.00,WUHU216HW,2013-03-14 14:29:00,
2013-03-14 09:34:00,39.7,27.3,29.73,South,180,7.8,8.5,61,0.00,,,0.00,WUHU216HW,2013-03-14 14:34:00,
2013-03-14 09:39:00,39.9,27.5,29.73,South,180,2.4,8.5,61,0.00,,,0.00,WUHU216HW,2013-03-14 14:39:00,
2013-03-14 09:44:00,40.4,27.8,29.73,SSE,158,5.1,7.8,61,0.00,,,0.00,WUHU216HW,2013-03-14 14:44:00,
2013-03-14 09:49:00,40.8,28.4,29.73,South,180,7.8,7.8,61,0.00,,,0.00,WUHU216HW,2013-03-14 14:49:00,
2013-03-14 09:54:00,41.0,28.5,29.73,South,180,5.8,7.8,61,0.00,,,0.00,WUHU216HW,2013-03-14 14:54:00,
2013-03-14 09:59:00,41.5,29.0,29.73,South,180,8.0,10.0,61,0.00,,,0.00,WUHU216HW,2013-03-14 14:59:00,
2013-03-14 10:04:00,41.9,29.4,29.73,South,180,10.5,10.5,61,0.00,,,0.00,WUHU216HW,2013-03-14 15:04:00,
2013-03-14 10:09:00,42.4,29.8,29.73,SSE,158,6.7,10.5,61,0.00,,,0.00,WUHU216HW,2013-03-14 15:09:00,
2013-03-14 10:14:00,42.8,30.3,29.72,South,180,3.8,10.5,61,0.00,,,0.00,WUHU216HW,2013-03-14 15:14:00,
2013-03-14 10:19:00,43.5,30.9,29.72,WSW,248,6.9,7.6,61,0.00,,,0.00,WUHU216HW,2013-03-14 15:19:00,
2013-03-14 10:24:00,44.2,32.0,29.72,South,180,2.9,6.9,62,0.00,,,0.00,WUHU216HW,2013-03-14 15:24:00,
2013-03-14 10:29:00,44.9,32.3,29.71,SSW,203,4.6,9.8,61,0.00,,,0.00,WUHU216HW,2013-03-14 15:29:00,
2013-03-14 10:34:00,46.2,33.4,29.71,SSE,158,1.7,12.7,61,0.00,,,0.00,WUHU216HW,2013-03-14 15:34:00,
2013-03-14 10:39:00,47.3,34.1,29.71,SSW,203,8.0,12.7,60,0.00,,,0.00,WUHU216HW,2013-03-14 15:39:00,
2013-03-14 10:44:00,48.0,34.8,29.71,SW,225,15.2,15.2,60,0.00,,,0.00,WUHU216HW,2013-03-14 15:44:00,
2013-03-14 10:50:00,48.5,34.9,29.71,SW,225,13.1,15.2,59,0.00,,,0.00,WUHU216HW,2013-03-14 15:50:00,
2013-03-14 10:55:00,49.2,35.1,29.71,SW,225,12.0,15.6,58,0.00,,,0.00,WUHU216HW,2013-03-14 15:55:00,
2013-03-14 11:02:00,49.6,35.4,29.71,South,180,5.8,12.5,58,0.00,,,0.00,WUHU216HW,2013-03-14 16:02:00,
2013-03-14 11:07:00,50.3,35.6,29.71,SSE,158,6.0,9.8,57,0.00,,,0.00,WUHU216HW,2013-03-14 16:07:00,
2013-03-14 11:12:00,50.9,35.6,29.71,South,180,11.4,11.4,57,0.00,,,0.00,WUHU216HW,2013-03-14 16:12:00,
2013-03-14 11:17:00,51.0,36.3,29.71,SSW,203,10.5,11.4,57,0.00,,,0.00,WUHU216HW,2013-03-14 16:17:00,
2013-03-14 11:22:00,51.6,36.3,29.70,SW,225,7.6,11.4,56,0.00,,,0.00,WUHU216HW,2013-03-14 16:22:00,
2013-03-14 11:27:00,51.8,36.3,29.70,South,180,7.1,10.9,56,0.00,,,0.00,WUHU216HW,2013-03-14 16:27:00,
2013-03-14 11:32:00,51.9,36.6,29.71,SSW,203,4.2,10.9,56,0.00,,,0.00,WUHU216HW,2013-03-14 16:32:00,
2013-03-14 11:37:00,52.3,37.4,29.71,SSW,203,6.9,8.2,57,0.00,,,0.00,WUHU216HW,2013-03-14 16:37:00,
2013-03-14 11:42:00,52.8,37.5,29.70,South,180,6.4,10.5,56,0.00,,,0.00,WUHU216HW,2013-03-14 16:42:00,
2013-03-14 11:47:00,53.4,38.0,29.70,SSW,203,6.9,12.0,56,0.00,,,0.00,WUHU216HW,2013-03-14 16:47:00,
2013-03-14 11:52:00,53.9,38.5,29.70,SW,225,3.5,12.0,56,0.00,,,0.00,WUHU216HW,2013-03-14 16:52:00,
2013-03-14 11:57:00,54.8,38.8,29.70,SSW,203,15.6,15.6,55,0.00,,,0.00,WUHU216HW,2013-03-14 16:57:00,
2013-03-14 12:02:00,55.4,39.3,29.70,South,180,12.5,15.6,55,0.00,,,0.00,WUHU216HW,2013-03-14 17:02:00,
2013-03-14 12:07:00,56.1,39.6,29.70,SW,225,15.2,18.1,54,0.00,,,0.00,WUHU216HW,2013-03-14 17:07:00,
2013-03-14 12:12:00,57.0,40.5,29.70,WSW,248,11.1,18.1,54,0.00,,,0.00,WUHU216HW,2013-03-14 17:12:00,
2013-03-14 12:17:00,57.7,40.7,29.70,SSW,203,11.1,14.5,53,0.00,,,0.00,WUHU216HW,2013-03-14 17:17:00,
2013-03-14 12:22:00,58.6,41.5,29.70,SSW,203,10.2,11.1,53,0.00,,,0.00,WUHU216HW,2013-03-14 17:22:00,
2013-03-14 12:27:00,59.1,41.5,29.70,South,180,6.2,13.1,52,0.00,,,0.00,WUHU216HW,2013-03-14 17:27:00,
2013-03-14 12:33:00,59.3,41.7,29.70,SW,225,11.8,13.1,52,0.00,,,0.00,WUHU216HW,2013-03-14 17:33:00,
2013-03-14 12:38:00,59.5,41.4,29.70,SSW,203,10.0,12.0,51,0.00,,,0.00,WUHU216HW,2013-03-14 17:38:00,
2013-03-14 12:43:00,59.7,41.5,29.69,West,270,3.8,12.0,51,0.00,,,0.00,WUHU216HW,2013-03-14 17:43:00,
2013-03-14 12:48:00,60.4,42.2,29.69,SSW,203,9.8,13.8,51,0.00,,,0.00,WUHU216HW,2013-03-14 17:48:00,
2013-03-14 12:53:00,60.6,41.9,29.69,SW,225,5.3,13.8,50,0.00,,,0.00,WUHU216HW,2013-03-14 17:53:00,
2013-03-14 12:58:00,60.6,41.9,29.69,South,180,4.4,8.0,50,0.00,,,0.00,WUHU216HW,2013-03-14 17:58:00,
2013-03-14 13:03:00,61.1,42.8,29.69,WSW,248,8.2,8.2,51,0.00,,,0.00,WUHU216HW,2013-03-14 18:03:00,
2013-03-14 13:08:00,61.7,42.3,29.69,SW,225,5.3,8.2,49,0.00,,,0.00,WUHU216HW,2013-03-14 18:08:00,
2013-03-14 13:13:00,62.0,42.6,29.70,WSW,248,12.0,12.0,49,0.00,,,0.00,WUHU216HW,2013-03-14 18:13:00,
2013-03-14 13:18:00,62.4,43.5,29.70,SSW,203,8.0,12.0,50,0.00,,,0.00,WUHU216HW,2013-03-14 18:18:00,
2013-03-14 13:23:00,63.3,43.1,29.70,West,270,8.0,11.1,48,0.00,,,0.00,WUHU216HW,2013-03-14 18:23:00,
2013-03-14 13:28:00,63.6,44.0,29.70,SSE,158,12.0,12.0,49,0.00,,,0.00,WUHU216HW,2013-03-14 18:28:00,
2013-03-14 13:33:00,64.2,44.0,29.68,SW,225,10.5,12.0,48,0.00,,,0.00,WUHU216HW,2013-03-14 18:33:00,
2013-03-14 13:38:00,64.7,43.9,29.69,WSW,248,8.0,10.5,47,0.00,,,0.00,WUHU216HW,2013-03-14 18:38:00,
2013-03-14 13:43:00,65.1,43.7,29.68,SW,225,7.8,8.0,46,0.00,,,0.00,WUHU216HW,2013-03-14 18:43:00,
2013-03-14 13:48:00,65.3,43.8,29.68,WSW,248,11.6,11.6,46,0.00,,,0.00,WUHU216HW,2013-03-14 18:48:00,
2013-03-14 13:53:00,65.6,43.6,29.68,WSW,248,7.1,14.3,45,0.00,,,0.00,WUHU216HW,2013-03-14 18:53:00,
2013-03-14 13:58:00,66.0,43.9,29.68,SSE,158,7.6,14.3,45,0.00,,,0.00,WUHU216HW,2013-03-14 18:58:00,
2013-03-14 14:03:00,66.2,44.1,29.68,WSW,248,12.5,12.5,45,0.00,,,0.00,WUHU216HW,2013-03-14 19:03:00,
2013-03-14 14:08:00,66.5,44.4,29.68,West,270,4.9,12.5,45,0.00,,,0.00,WUHU216HW,2013-03-14 19:08:00,
2013-03-14 14:13:00,66.7,43.4,29.68,WSW,248,10.9,12.5,43,0.00,,,0.00,WUHU216HW,2013-03-14 19:13:00,
2013-03-14 14:18:00,67.1,43.7,29.68,WNW,293,1.1,10.9,43,0.00,,,0.00,WUHU216HW,2013-03-14 19:18:00,
2013-03-14 14:23:00,67.2,43.9,29.68,West,270,5.5,6.2,43,0.00,,,0.00,WUHU216HW,2013-03-14 19:23:00,
2013-03-14 14:28:00,67.4,44.0,29.68,WSW,248,6.7,7.1,43,0.00,,,0.00,WUHU216HW,2013-03-14 19:28:00,
2013-03-14 14:33:00,67.6,43.6,29.68,WSW,248,3.5,7.3,42,0.00,,,0.00,WUHU216HW,2013-03-14 19:33:00,
2013-03-14 14:38:00,67.8,43.8,29.68,SW,225,6.4,7.3,42,0.00,,,0.00,WUHU216HW,2013-03-14 19:38:00,
2013-03-14 14:43:00,68.1,44.7,29.68,West,270,7.8,7.8,43,0.00,,,0.00,WUHU216HW,2013-03-14 19:43:00,
2013-03-14 14:48:00,68.5,44.6,29.68,SW,225,4.4,7.8,43,0.00,,,0.00,WUHU216HW,2013-03-14 19:48:00,
2013-03-14 14:53:00,68.9,44.7,29.68,West,270,7.3,10.5,42,0.00,,,0.00,WUHU216HW,2013-03-14 19:53:00,
2013-03-14 14:58:00,68.7,44.6,29.68,SSW,203,9.6,10.5,42,0.00,,,0.00,WUHU216HW,2013-03-14 19:58:00,
2013-03-14 15:03:00,68.9,44.2,29.68,SW,225,8.9,9.6,41,0.00,,,0.00,WUHU216HW,2013-03-14 20:03:00,
2013-03-14 15:08:00,69.0,44.3,29.68,WSW,248,4.4,8.9,41,0.00,,,0.00,WUHU216HW,2013-03-14 20:08:00,
2013-03-14 15:13:00,69.2,44.5,29.67,WSW,248,7.3,8.9,41,0.00,,,0.00,WUHU216HW,2013-03-14 20:13:00,
2013-03-14 15:18:00,69.6,44.6,29.67,SW,225,4.6,7.3,41,0.00,,,0.00,WUHU216HW,2013-03-14 20:18:00,
2013-03-14 15:23:00,69.6,44.8,29.67,WSW,248,2.4,7.3,41,0.00,,,0.00,WUHU216HW,2013-03-14 20:23:00,
2013-03-14 15:28:00,69.9,45.1,29.67,WNW,293,7.8,7.8,41,0.00,,,0.00,WUHU216HW,2013-03-14 20:28:00,
2013-03-14 15:33:00,69.9,45.1,29.68,SSW,203,5.3,7.8,41,0.00,,,0.00,WUHU216HW,2013-03-14 20:33:00,
2013-03-14 15:38:00,70.3,45.5,29.67,SW,225,2.0,7.1,41,0.00,,,0.00,WUHU216HW,2013-03-14 20:38:00,
2013-03-14 15:43:00,70.5,45.0,29.67,WNW,293,4.0,5.3,40,0.00,,,0.00,WUHU216HW,2013-03-14 20:43:00,
2013-03-14 15:48:00,70.7,45.0,29.67,SSW,203,9.8,9.8,40,0.00,,,0.00,WUHU216HW,2013-03-14 20:48:00,
2013-03-14 15:53:00,71.0,45.5,29.67,West,270,8.0,9.8,40,0.00,,,0.00,WUHU216HW,2013-03-14 20:53:00,
2013-03-14 15:58:00,71.2,45.7,29.67,WNW,293,4.4,9.8,40,0.00,,,0.00,WUHU216HW,2013-03-14 20:58:00,
2013-03-14 16:03:00,71.4,45.1,29.67,SSW,203,1.7,8.0,39,0.00,,,0.00,WUHU216HW,2013-03-14 21:03:00,
2013-03-14 16:08:00,71.4,45.1,29.67,WNW,293,5.3,9.8,39,0.00,,,0.00,WUHU216HW,2013-03-14 21:08:00,
2013-03-14 16:13:00,71.4,45.1,29.67,West,270,3.1,9.8,39,0.00,,,0.00,WUHU216HW,2013-03-14 21:13:00,
2013-03-14 16:18:00,71.7,44.8,29.67,SW,225,4.4,8.5,38,0.00,,,0.00,WUHU216HW,2013-03-14 21:18:00,
2013-03-14 16:23:00,71.9,45.6,29.66,West,270,3.5,8.5,39,0.00,,,0.00,WUHU216HW,2013-03-14 21:23:00,
2013-03-14 16:28:00,72.1,43.5,29.67,WSW,248,6.7,6.7,36,0.00,,,0.00,WUHU216HW,2013-03-14 21:28:00,
2013-03-14 16:33:00,71.9,43.3,29.66,NNW,338,8.0,9.8,36,0.00,,,0.00,WUHU216HW,2013-03-14 21:33:00,
2013-03-14 16:38:00,71.7,43.2,29.66,NW,315,12.7,12.7,36,0.00,,,0.00,WUHU216HW,2013-03-14 21:38:00,
2013-03-14 16:43:00,71.7,43.2,29.66,West,270,4.4,12.7,36,0.00,,,0.00,WUHU216HW,2013-03-14 21:43:00,
2013-03-14 16:48:00,72.1,45.0,29.66,SSW,203,4.2,12.7,37,0.00,,,0.00,WUHU216HW,2013-03-14 21:48:00,
2013-03-14 16:53:00,72.5,45.3,29.66,SW,225,4.0,4.6,38,0.00,,,0.00,WUHU216HW,2013-03-14 21:53:00,
2013-03-14 16:58:00,72.5,43.8,29.66,NNW,338,5.8,5.8,36,0.00,,,0.00,WUHU216HW,2013-03-14 21:58:00,
2013-03-14 17:03:00,72.3,43.7,29.66,West,270,3.3,7.1,36,0.00,,,0.00,WUHU216HW,2013-03-14 22:03:00,
2013-03-14 17:09:00,72.5,43.8,29.66,WNW,293,2.4,7.1,36,0.00,,,0.00,WUHU216HW,2013-03-14 22:09:00,
2013-03-14 17:13:00,72.5,42.3,29.66,WNW,293,3.1,7.6,34,0.00,,,0.00,WUHU216HW,2013-03-14 22:13:00,
2013-03-14 17:19:00,71.9,41.9,29.66,NW,315,3.8,7.6,34,0.00,,,0.00,WUHU216HW,2013-03-14 22:19:00,
2013-03-14 17:23:00,71.7,41.7,29.66,NW,315,5.1,5.1,34,0.00,,,0.00,WUHU216HW,2013-03-14 22:23:00,
2013-03-14 17:28:00,71.4,42.1,29.66,NNW,338,4.9,5.1,35,0.00,,,0.00,WUHU216HW,2013-03-14 22:28:00,
2013-03-14 17:33:00,71.7,42.4,29.66,West,270,1.3,6.7,35,0.00,,,0.00,WUHU216HW,2013-03-14 22:33:00,
2013-03-14 17:38:00,71.7,42.4,29.67,NNW,338,1.1,6.7,35,0.00,,,0.00,WUHU216HW,2013-03-14 22:38:00,
2013-03-14 17:43:00,71.7,43.2,29.66,NW,315,5.3,5.3,36,0.00,,,0.00,WUHU216HW,2013-03-14 22:43:00,
2013-03-14 17:48:00,71.9,43.3,29.66,NW,315,3.8,7.3,36,0.00,,,0.00,WUHU216HW,2013-03-14 22:48:00,
2013-03-14 17:53:00,71.9,42.6,29.67,NW,315,1.5,7.3,35,0.00,,,0.00,WUHU216HW,2013-03-14 22:53:00,
2013-03-14 17:58:00,71.7,41.7,29.67,WNW,293,2.2,6.9,34,0.00,,,0.00,WUHU216HW,2013-03-14 22:58:00,
2013-03-14 18:03:00,71.4,42.1,29.66,NW,315,5.3,6.9,35,0.00,,,0.00,WUHU216HW,2013-03-14 23:03:00,
2013-03-14 18:09:00,71.4,41.4,29.66,West,270,1.5,6.4,34,0.00,,,0.00,WUHU216HW,2013-03-14 23:09:00,
2013-03-14 18:14:00,71.2,42.0,29.66,NNW,338,1.3,3.8,35,0.00,,,0.00,WUHU216HW,2013-03-14 23:14:00,
2013-03-14 18:19:00,71.2,42.0,29.66,WNW,293,0.8,3.1,35,0.00,,,0.00,WUHU216HW,2013-03-14 23:19:00,
2013-03-14 18:24:00,71.0,42.0,29.65,NW,315,0.0,3.1,35,0.00,,,0.00,WUHU216HW,2013-03-14 23:24:00,
2013-03-14 18:29:00,70.8,42.4,29.66,NW,315,0.0,2.4,36,0.00,,,0.00,WUHU216HW,2013-03-14 23:29:00,
2013-03-14 19:39:00,64.5,40.2,29.69,WNW,293,0.0,0.0,41,0.00,,,0.00,WUHU216HW,2013-03-15 00:39:00,
2013-03-14 19:44:00,64.2,39.9,29.69,WNW,293,0.0,0.0,41,0.00,,,0.00,WUHU216HW,2013-03-15 00:44:00,
2013-03-14 19:49:00,63.5,39.3,29.69,WNW,293,0.0,0.0,41,0.00,,,0.00,WUHU216HW,2013-03-15 00:49:00,
2013-03-14 19:54:00,62.9,39.4,29.69,WNW,293,0.0,0.0,42,0.00,,,0.00,WUHU216HW,2013-03-15 00:54:00,
2013-03-14 19:59:00,62.4,38.9,29.68,WNW,293,0.0,0.0,42,0.00,,,0.00,WUHU216HW,2013-03-15 00:59:00,
2013-03-14 20:04:00,62.2,39.3,29.68,WNW,293,0.0,0.0,43,0.00,,,0.00,WUHU216HW,2013-03-15 01:04:00,
2013-03-14 20:09:00,61.5,38.6,29.68,WNW,293,0.0,0.0,43,0.00,,,0.00,WUHU216HW,2013-03-15 01:09:00,
2013-03-14 20:14:00,61.1,38.3,29.68,WNW,293,0.0,0.0,43,0.00,,,0.00,WUHU216HW,2013-03-15 01:14:00,
2013-03-14 20:19:00,60.6,38.4,29.68,WNW,293,0.0,0.0,44,0.00,,,0.00,WUHU216HW,2013-03-15 01:19:00,
2013-03-14 20:24:00,60.4,38.3,29.68,WNW,293,0.0,0.0,44,0.00,,,0.00,WUHU216HW,2013-03-15 01:24:00,
2013-03-14 20:29:00,60.0,38.5,29.68,WNW,293,0.0,0.0,45,0.00,,,0.00,WUHU216HW,2013-03-15 01:29:00,
2013-03-14 20:34:00,59.7,38.2,29.68,WNW,293,0.0,0.0,45,0.00,,,0.00,WUHU216HW,2013-03-15 01:34:00,
2013-03-14 20:39:00,59.3,37.9,29.68,WNW,293,0.0,0.0,45,0.00,,,0.00,WUHU216HW,2013-03-15 01:39:00,
2013-03-14 20:44:00,58.8,37.9,29.68,WNW,293,0.0,0.0,46,0.00,,,0.00,WUHU216HW,2013-03-15 01:44:00,
2013-03-14 20:49:00,58.8,37.9,29.68,WNW,293,0.0,0.0,46,0.00,,,0.00,WUHU216HW,2013-03-15 01:49:00,
2013-03-14 20:54:00,58.4,38.2,29.68,WNW,293,0.0,0.0,47,0.00,,,0.00,WUHU216HW,2013-03-15 01:54:00,
2013-03-14 20:59:00,58.1,37.9,29.68,WNW,293,0.0,0.0,47,0.00,,,0.00,WUHU216HW,2013-03-15 01:59:00,
2013-03-14 21:04:00,57.9,37.7,29.69,WNW,293,0.0,0.0,47,0.00,,,0.00,WUHU216HW,2013-03-15 02:04:00,
2013-03-14 21:09:00,57.7,37.5,29.69,WNW,293,0.0,0.0,47,0.00,,,0.00,WUHU216HW,2013-03-15 02:09:00,
2013-03-14 21:14:00,57.5,37.4,29.68,WNW,293,0.0,0.0,47,0.00,,,0.00,WUHU216HW,2013-03-15 02:14:00,
2013-03-14 21:19:00,57.3,37.8,29.68,WNW,293,0.0,0.0,48,0.00,,,0.00,WUHU216HW,2013-03-15 02:19:00,
2013-03-14 21:24:00,57.0,37.5,29.69,WNW,293,0.0,0.0,48,0.00,,,0.00,WUHU216HW,2013-03-15 02:24:00,
2013-03-14 21:29:00,57.0,38.0,29.68,West,270,0.0,0.0,49,0.00,,,0.00,WUHU216HW,2013-03-15 02:29:00,
2013-03-14 21:34:00,56.8,37.9,29.69,West,270,0.0,4.2,49,0.00,,,0.00,WUHU216HW,2013-03-15 02:34:00,